Mountain Home, AR

12:26 AM CDT on August 24, 2017 (GMT -0500)
Baxter County Regional

Weather History for KBPK - January, 2014

Change the Weather History Date:

Saturday, January 18, 2014

  Actual Average (KFLP) Record (KFLP)
Temperature  
Mean Temperature 38 °F -  
Max Temperature 55 °F 45 °F 66 °F (2015)
Min Temperature 21 °F 25 °F 3 °F (2003)
Degree Days  
Heating Degree Days 27    
Moisture  
Dew Point 16 °F    
Average Humidity 38    
Maximum Humidity 52    
Minimum Humidity 21    
Precipitation  
Precipitation 0.00 in - - ()
Sea Level Pressure  
Sea Level Pressure 29.93 in    
Wind  
Wind Speed 6 mph (West)    
Max Wind Speed 15 mph    
Max Gust Speed 31 mph    
Visibility 10 miles    
Events      
Averages and records for this station are not official NWS values.
T = Trace of Precipitation, MM = Missing Value Source: NWS Daily Summary

Daily Weather History Graph

Daily Weather History Graph

Search for Another Location

Airport or City:

Trip Planner

Search our weather history database for the weather conditions in past years. The results will help you decide how hot, cold, wet, or windy it might be!

Date:

Astronomy

Jan. 18, 2014 Rise Set
Actual Time 7:19 AM CST 5:21 PM CST
Civil Twilight 6:51 AM CST 5:49 PM CST
Nautical Twilight 6:20 AM CST 6:20 PM CST
Astronomical Twilight 5:49 AM CST 6:51 PM CST
Moon 7:58 PM CST (1/18) 8:24 AM CST (1/18)
Length of Visible Light 10h 57m
Length of Day
10h 01m
Waning Gibbous, 94% of the Moon is Illuminated
Jan 18
Waning Gibbous
Jan 23
Last Quarter
Jan 30
New
Feb 6
First Quarter
Feb 14
Full

Hourly Weather History & Observations

Time (CST) Temp. Windchill Dew Point Humidity Pressure Visibility Wind Dir Wind Speed Gust Speed Precip Events Conditions
12:53 AM 26.1 °F 21.9 °F 3.0 °F 37% 30.12 in 10.0 mi SSW 3.5 mph - N/A   Clear
1:53 AM 24.1 °F - 5.0 °F 44% 30.11 in 10.0 mi Calm Calm - N/A   Clear
2:53 AM 21.9 °F - 5.0 °F 48% 30.10 in 10.0 mi Calm Calm - N/A   Clear
3:53 AM 25.0 °F 18.1 °F 7.0 °F 46% 30.06 in 10.0 mi South 5.8 mph - N/A   Overcast
4:53 AM 26.1 °F 21.9 °F 9.0 °F 49% 30.04 in 10.0 mi South 3.5 mph - N/A   Overcast
5:53 AM 27.0 °F 19.5 °F 10.0 °F 49% 30.00 in 10.0 mi South 6.9 mph - N/A   Mostly Cloudy
6:53 AM 28.0 °F 20.8 °F 10.9 °F 49% 29.96 in 10.0 mi South 6.9 mph - N/A   Clear
7:53 AM 30.9 °F 23.5 °F 12.0 °F 46% 29.93 in 10.0 mi South 8.1 mph - N/A   Scattered Clouds
8:53 AM 36.0 °F 31.1 °F 14.0 °F 41% 29.90 in 10.0 mi SSW 5.8 mph - N/A   Overcast
9:53 AM 44.1 °F 40.8 °F 15.1 °F 31% 29.86 in 10.0 mi SSW 5.8 mph - N/A   Partly Cloudy
10:53 AM 52.0 °F - 15.1 °F 23% 29.82 in 10.0 mi WSW 11.5 mph 21.9 mph N/A   Clear
11:53 AM 55.9 °F - 16.0 °F 21% 29.77 in 10.0 mi WSW 10.4 mph 17.3 mph N/A   Clear
12:53 PM 55.9 °F - 19.0 °F 24% 29.76 in 10.0 mi NW 9.2 mph 26.5 mph N/A   Clear
1:53 PM 55.0 °F - 21.9 °F 28% 29.77 in 10.0 mi WNW 10.4 mph 21.9 mph N/A   Clear
2:53 PM 55.9 °F - 19.9 °F 25% 29.81 in 10.0 mi NW 15.0 mph 31.1 mph N/A   Partly Cloudy
3:53 PM 54.0 °F - 21.0 °F 28% 29.83 in 10.0 mi West 9.2 mph 18.4 mph N/A   Clear
4:53 PM 52.0 °F - 19.9 °F 28% 29.86 in 10.0 mi WNW 12.7 mph 24.2 mph N/A   Mostly Cloudy
5:53 PM 48.9 °F - 21.0 °F 33% 29.90 in 10.0 mi NW 8.1 mph 20.7 mph N/A   Clear
6:53 PM 46.9 °F - 21.9 °F 37% 29.93 in 10.0 mi WNW 12.7 mph 20.7 mph N/A   Clear
7:53 PM 46.0 °F 41.4 °F 21.0 °F 37% 29.94 in 10.0 mi WNW 9.2 mph 19.6 mph N/A   Partly Cloudy
8:53 PM 46.0 °F 40.6 °F 21.9 °F 39% 29.95 in 10.0 mi NW 11.5 mph 24.2 mph N/A   Mostly Cloudy
9:53 PM 44.1 °F 38.1 °F 21.9 °F 42% 29.96 in 10.0 mi WNW 11.5 mph 21.9 mph N/A   Mostly Cloudy
10:53 PM 39.9 °F 32.5 °F 21.0 °F 47% 29.99 in 10.0 mi NNW 12.7 mph 27.6 mph N/A   Clear
11:53 PM 36.0 °F 28.0 °F 19.9 °F 52% 30.03 in 10.0 mi NW 11.5 mph 21.9 mph N/A   Clear